Starlink 11526

operational
NORAD ID: 63007 Int'l Des: 2025-032 Owner: SPXS Country: US Constellation: starlink
LEOCIRCULAR

关于 Starlink 11526

正在加载描述...

实时位置

正在加载3D地球...

即将过境

高度历史

Altitude vs Time

uPlot chart will show altitude changes over time

两行轨道根数

1 63007U 25032C 25306.10984651 .00228912 00000-0 17306-2 0 9991
2 63007 42.9997 243.9166 0001316 184.2497 175.8360 15.70951977 42158
Epoch: Nov 2, 2025 • Age: 30 hours

当前状态

高度 367.3 km
速度 7.69 km/s
星下点 -42.64°S, 38.39°W
发射日期 Feb 15, 2025
运行时间 0.7 years
类型 internet

技术详情

分类 Payload
质量 960.00 kg
干质量 910.00 kg
总质量 960.00 kg
长度 0.30 m
直径 4.10 m
跨度 29.00 m
形状 Box + pan
制造商 SPXS
平台类型 Starlink V2MD
阶段状态 In Orbit
所有者/国家 SPXS/US

大型星座

Loading constellations...